Temperature
14 14 14 14 14 14 14 13 13 13 13 13 13 13 13 13 13 13 13 13 13 13 13 13 13 13 13 13 13 13 13 12 12 12 12 11 11 11 11 11 11 12 11
14 14 14 14 14 13 13 13 13 13 13 13 13 13 13 13 13 13 13 13 13 13 13 13 13 13 13 13 13 13 13 12 12 12 12 11 11 11 11 11 11 11 11
14 13 13 13 13 13 13 13 13 13 13 13 13 13 13 13 13 13 13 13 13 13 13 13 13 13 12 12 12 12 12 12 12 12 12 12 11 11 11 11 11 11 11
13 13 13 13 13 13 13 13 13 13 13 12 12 12 12 12 12 12 12 12 12 12 12 12 12 12 12 12 12 12 12 12 12 12 12 11 11 11 11 11 11 11 11
13 13 13 12 12 12 12 12 12 12 12 12 12 12 12 12 12 12 12 12 12 12 12 12 12 12 12 12 12 12 12 12 12 11 11 11 11 11 11 11 11 10 10
12 12 12 12 12 12 12 12 12 12 12 12 12 12 12 11 11 11 11 12 12 12 12 12 12 12 12 12 11 12 12 12 11 11 11 11 11 11 11 10 10 10 10
12 12 12 12 12 12 12 11 11 11 11 11 11 11 11 11 11 11 11 11 11 11 11 11 11 11 11 11 11 11 11 11 11 11 11 11 11 11 11 11 10 10 10
11 11 11 11 11 11 11 11 11 11 11 11 11 11 11 11 11 11 11 11 11 11 11 11 11 11 11 11 11 11 11 11 10 10 11 11 10 10 10 10 10 10 10
11 11 11 11 11 11 11 11 11 11 11 10 10 11 11 11 10 10 10 10 10 10 10 10 10 10 10 10 10 10 10 10 10 10 10 10 10 10 10 10 10 10 10
11 10 10 11 11 11 11 10 10 10 10 10 10 10 10 10 10 10 10 10 10 10 10 10 10 10 10 10 10 10 10 10 10 10 10 10 10 10 10 9 9 9 9
10 10 10 10 10 10 10 10 10 10 10 10 10 10 10 9 9 10 10 10 10 9 9 9 9 9 9 9 9 9 9 9 9 9 9 9 9 9 9 9 9 9 9
10 10 10 10 10 10 9 9 9 9 9 9 9 9 9 9 9 9 9 9 9 9 9 9 9 9 9 9 9 9 9 9 9 9 9 9 9 9 9 9 9 9 9
9 9 9 9 9 9 9 9 9 9 9 9 9 9 9 9 9 9 9 9 9 9 9 9 8 8 8 8 8 8 8 8 8 8 8 8 9 9 9 9 9 8 8
9 9 9 9 9 9 9 8 8 8 8 8 8 8 8 8 8 8 8 8 8 8 8 8 8 8 8 8 8 8 8 8 8 8 8 8 8 8 8 8 8 8 8
8 8 8 8 8 8 8 8 8 8 8 8 8 8 8 8 8 8 8 8 8 8 8 8 8 8 8 8 8 8 8 8 8 8 8 8 8 8 8 8 8 8 8
8 8 8 8 8 8 8 8 8 8 7 7 7 7 7 7 7 7 7 7 7 7 7 7 7 7 7 7 7 7 7 7 7 7 7 7 7 7 7 7 7 7 7
7 7 7 7 7 7 7 7 7 7 7 7 7 7 7 7 7 7 7 7 7 7 7 7 7 7 7 7 7 7 7 7 7 7 7 7 7 7 7 7 7 7 7
7 7 7 7 7 7 7 7 6 6 6 6 6 6 6 6 6 6 6 6 6 6 6 6 6 6 6 6 6 6 6 6 6 7 7 7 7 7 6 6 6 6 6
7 7 6 6 6 6 6 6 6 6 6 6 6 6 6 6 6 6 6 6 6 6 6 6 6 6 6 6 6 6 6 6 6 6 6 6 6 6 6 6 6 6 6
7 6 6 6 6 6 6 6 5 5 5 5 5 5 5 5 5 5 5 5 5 5 5 5 5 5 5 5 6 6 6 6 6 6 6 6 6 5 5 5 5 6 6
6 6 6 6 5 5 5 5 5 5 5 5 5 5 5 5 5 5 5 5 5 5 5 5 5 5 5 5 5 5 5 5 5 5 5 5 5 5 5 5 5 5 5
6 6 6 5 5 5 5 5 5 5 4 4 4 4 4 4 4 4 4 4 4 4 5 5 5 5 5 5 5 5 5 5 5 5 5 5 5 5 5 5 4 4 4
6 5 5 5 5 5 4 4 4 4 4 4 4 4 4 4 4 4 4 4 4 4 4 4 4 4 4 4 4 4 4 4 5 5 5 5 4 4 4 4 4 4 4
5 5 5 5 5 4 4 4 4 4 4 4 3 3 3 4 3 4 4 4 4 4 4 4 4 4 4 4 4 4 4 4 4 4 4 4 4 4 4 4 4 4 4
5 5 5 4 4 4 4 4 3 3 3 3 3 3 3 3 3 3 3 3 3 3 3 3 3 4 4 4 4 4 4 4 4 4 4 4 4 4 4 4 4 4 4
5 5 4 4 4 4 3 3 3 3 3 3 3 3 3 3 3 3 3 3 3 3 3 3 3 3 3 3 3 4 4 4 4 4 4 3 3 4 4 3 3 3 3
Wind_Speed
1 1 1 1 1 2 2 2 2 2 3 3 3 3 3 2 2 2 2 2 3 2 2 3 3 2 2 1 2 2 3 3 3 2 1 2 3 3 4 5 5 5 4
1 1 1 1 1 1 1 2 2 2 3 3 3 3 2 2 2 3 2 2 3 3 2 3 3 2 2 2 2 2 3 3 4 4 2 2 2 4 4 3 3 4 5
2 2 1 1 1 1 1 2 1 2 2 2 3 3 3 2 2 3 3 3 2 2 3 3 3 3 3 2 3 3 3 3 3 4 3 2 1 3 2 2 2 1 3
2 2 1 1 1 1 1 1 1 1 2 3 3 3 3 3 3 3 3 3 2 2 2 3 3 4 4 4 4 4 3 3 3 4 3 2 2 2 3 2 1 1 2
1 1 1 1 1 1 0 0 0 0 2 3 3 2 2 2 2 3 3 2 3 2 2 2 3 3 4 4 3 4 4 4 3 3 3 3 2 3 4 3 3 1 2
1 1 1 1 1 0 1 0 0 1 1 1 2 2 2 2 3 3 3 3 3 3 2 2 2 3 3 4 5 6 7 6 5 4 3 4 5 5 4 4 3 2 2
1 0 1 1 1 1 1 0 1 1 0 0 1 1 2 2 2 3 3 2 2 3 3 2 2 2 3 3 4 4 5 6 8 7 6 6 6 7 7 6 5 4 4
1 1 1 1 1 1 1 1 1 1 1 1 1 2 2 2 3 2 3 2 2 3 3 3 3 2 2 3 3 3 2 3 5 5 6 7 6 7 9 8 7 4 1
2 2 2 2 2 2 2 2 2 1 1 1 2 2 2 3 3 3 2 2 2 3 3 3 3 3 3 3 4 3 3 2 3 5 5 6 7 8 8 5 4 3 2
3 3 3 2 3 3 3 2 1 1 2 2 2 2 3 3 4 3 3 2 2 2 2 3 4 4 4 4 4 5 4 4 2 2 2 3 4 6 9 8 8 6 3
4 3 2 2 2 3 2 2 1 1 1 2 2 2 3 3 4 4 4 3 4 3 3 3 3 5 5 5 4 4 6 4 3 3 2 2 1 3 5 7 7 6 6
2 2 2 2 2 1 1 1 1 2 1 2 2 2 2 3 3 4 5 5 4 4 4 4 4 5 6 5 4 4 5 3 2 2 2 2 3 3 4 5 8 8 7
1 2 2 2 2 1 2 2 1 1 2 2 2 2 3 3 3 4 5 5 5 4 4 5 5 6 6 5 5 5 4 3 3 2 3 4 3 3 3 3 3 4 4
1 2 1 1 1 2 1 2 2 2 3 3 3 3 3 2 3 3 3 3 4 4 3 3 4 4 4 4 3 4 4 4 4 4 4 4 2 1 2 2 3 3 2
1 1 1 1 1 2 2 2 3 3 4 4 4 3 3 4 5 5 3 3 3 4 2 1 1 2 2 2 2 3 3 3 4 3 4 3 3 3 3 2 2 3 3
1 1 1 1 1 1 1 3 4 3 5 5 5 4 4 5 5 5 5 4 4 3 3 2 3 3 4 4 4 4 4 4 4 4 4 4 4 4 4 3 3 4 5
2 3 2 2 2 2 2 2 3 4 4 4 4 5 5 5 5 5 5 4 3 3 3 3 4 4 4 4 4 4 4 5 4 4 5 5 5 4 4 4 4 5 5
3 3 2 2 2 2 3 3 3 2 3 3 4 5 5 5 4 4 3 1 2 2 3 4 5 5 4 4 4 4 4 4 4 4 5 4 5 4 4 5 5 6 6
3 2 3 3 3 3 3 3 2 3 3 3 3 4 4 4 4 3 2 2 3 3 4 4 5 4 4 5 5 4 5 5 5 5 5 5 5 5 5 5 5 7 6
3 5 4 3 2 2 2 2 3 3 3 3 3 3 3 2 2 2 2 3 3 4 4 5 5 5 5 5 5 5 5 5 5 5 5 5 5 5 6 6 6 6 6
3 4 5 3 3 3 3 3 3 3 3 4 4 4 3 3 3 3 3 3 4 4 5 5 5 5 5 5 5 5 6 6 6 6 6 6 6 6 6 6 6 6 6
4 3 3 3 3 3 3 3 3 3 4 4 4 4 4 3 3 3 4 4 4 4 4 4 4 4 5 5 5 6 6 6 6 6 6 6 6 6 6 6 6 6 6
3 3 3 3 3 3 3 3 3 3 3 4 3 3 3 3 4 4 4 4 4 4 4 3 4 4 4 5 5 5 6 7 6 6 6 6 6 6 6 7 7 7 7
3 3 4 3 3 3 3 3 3 3 3 3 3 4 4 4 4 5 5 4 4 4 4 4 4 5 6 5 5 6 6 6 6 6 7 7 7 7 7 7 8 8 8
2 3 3 3 3 3 3 3 3 3 3 4 4 4 4 4 4 5 4 4 4 4 5 5 5 6 7 8 7 7 8 8 8 6 5 6 7 7 7 7 8 8 8
2 2 3 3 3 3 3 3 3 3 4 4 4 4 4 4 5 5 4 4 4 4 5 5 6 7 7 7 8 8 8 8 8 8 6 5 6 7 7 7 8 7 8
Wind_Direction
173 184 164 181 190 175 180 199 208 205 191 181 180 175 171 163 166 170 187 189 185 202 204 188 195 175 161 167 157 158 157 149 163 199 183 163 148 147 143 153 163 161 164
184 153 168 167 122 136 193 226 214 200 195 188 171 165 172 172 179 177 191 195 189 198 205 194 206 186 182 184 173 171 171 166 159 168 179 161 163 167 157 156 162 175 182
159 139 119 111 137 204 232 235 224 209 199 183 160 167 177 180 183 187 186 205 201 199 198 196 206 179 197 195 186 179 178 171 157 160 173 166 145 155 142 158 156 169 195
142 136 156 209 212 221 243 247 239 212 182 179 178 184 183 184 184 192 199 208 202 201 199 199 202 192 199 196 194 189 174 161 158 159 159 162 159 155 143 156 183 237 233
135 148 198 224 214 195 195 237 240 175 180 180 174 182 186 190 201 201 200 197 187 198 208 212 215 207 202 195 194 186 173 169 163 171 170 157 166 165 185 182 192 205 256
162 199 221 213 176 171 209 188 143 178 190 155 169 183 194 218 218 195 184 183 186 190 210 233 238 225 222 218 205 185 174 173 178 179 188 190 199 195 181 177 167 163 240
184 204 232 211 207 215 224 173 192 220 194 115 202 184 205 241 221 205 208 182 189 204 211 223 247 249 229 221 223 207 196 191 183 184 193 206 200 197 182 184 189 192 214
258 258 279 254 235 228 189 197 213 205 193 207 234 222 215 254 258 238 218 193 204 217 215 211 215 238 229 192 179 180 200 207 204 197 203 214 210 197 191 193 193 187 198
260 259 254 239 225 219 208 216 215 180 197 222 233 226 229 262 264 241 210 189 214 236 232 222 210 220 235 183 165 180 202 244 235 220 223 229 223 204 186 162 156 159 211
254 255 252 244 223 217 214 215 221 195 211 220 246 239 230 249 264 248 219 194 214 236 244 238 231 220 213 188 180 183 202 227 221 230 245 248 224 204 190 185 183 183 189
257 256 262 255 242 221 208 208 205 208 218 234 247 261 255 255 268 256 234 209 208 214 223 235 238 230 219 208 202 197 213 210 199 199 211 226 223 202 195 197 195 192 194
264 273 274 269 263 252 200 214 217 196 206 250 266 283 281 271 265 260 250 238 223 209 222 227 228 225 224 216 214 223 221 204 183 190 208 222 227 224 216 206 210 214 216
256 268 272 289 287 255 211 212 224 218 217 245 252 259 278 281 277 279 265 253 241 226 226 227 226 223 218 215 224 223 214 196 184 196 219 232 234 228 210 204 209 215 227
250 271 274 284 317 308 266 226 217 225 230 242 246 253 273 279 275 275 266 259 248 242 238 228 225 228 223 225 230 230 217 202 199 214 225 228 223 212 210 208 215 208 226
268 279 290 296 285 306 297 273 255 243 236 237 241 236 243 258 262 265 261 249 237 225 199 176 179 192 209 224 226 226 213 205 214 218 217 219 219 222 227 211 207 208 219
239 267 258 265 275 271 285 313 308 288 286 269 263 255 256 258 268 269 270 262 252 223 186 199 211 214 219 222 224 226 220 218 218 216 217 219 224 225 230 221 211 213 225
231 246 244 244 251 255 253 263 300 319 314 293 279 273 273 277 273 267 269 266 253 210 210 220 222 222 225 226 226 225 228 228 218 216 220 223 226 228 226 226 221 223 230
239 249 256 244 247 245 249 256 256 272 302 306 298 287 287 287 281 272 274 282 265 229 229 229 233 232 228 227 230 231 232 230 225 227 228 229 227 227 229 232 229 229 235
233 235 241 244 247 245 250 258 264 269 276 289 306 310 303 299 291 279 260 235 241 247 244 238 237 235 234 232 232 232 231 230 229 227 228 229 228 227 234 236 238 238 236
236 255 259 249 248 251 252 254 259 265 272 274 279 287 306 309 296 285 262 254 249 254 255 250 243 240 238 234 232 231 231 232 232 231 231 229 227 226 233 236 237 238 235
233 247 262 258 244 247 248 248 251 257 264 269 272 277 287 275 266 268 269 266 260 258 257 257 254 247 242 238 234 233 234 236 233 233 233 230 227 229 232 232 235 237 239
226 228 231 238 242 247 253 250 249 252 257 266 281 286 283 280 272 272 270 271 270 267 259 252 256 253 245 239 236 235 237 239 239 237 236 234 231 230 229 229 231 234 236
224 224 229 236 241 250 257 258 256 256 262 265 274 283 279 275 276 275 273 271 269 269 273 264 258 259 257 249 242 234 236 238 241 237 234 232 230 228 228 230 231 231 234
230 223 222 231 238 238 245 257 260 263 265 268 272 276 275 270 272 273 276 278 273 274 273 266 259 260 261 259 255 251 250 250 248 240 231 232 232 231 230 231 231 231 232
231 226 226 229 234 238 246 255 260 265 269 269 272 276 280 278 273 274 273 270 271 271 273 271 268 265 264 262 263 263 258 248 248 248 239 233 235 234 233 233 232 232 231
245 237 231 228 231 236 242 250 256 262 265 271 272 271 272 274 275 273 270 272 273 272 274 275 274 271 271 268 268 269 262 250 245 245 239 236 235 237 235 236 234 233 232
Height
1522 1522 1522 1522 1523 1522 1523 1523 1523 1524 1524 1525 1525 1526 1526 1527 1527 1528 1528 1529 1530 1530 1531 1531 1531 1532 1532 1533 1534 1534 1535 1536 1536 1537 1538 1539 1539 1540 1541 1541 1542 1542 1542
1520 1520 1520 1520 1520 1520 1520 1520 1521 1521 1522 1522 1523 1524 1524 1525 1525 1526 1526 1527 1527 1528 1528 1529 1529 1530 1530 1531 1532 1532 1533 1534 1535 1535 1536 1537 1537 1538 1539 1540 1540 1541 1541
1519 1518 1518 1518 1518 1518 1518 1518 1518 1519 1519 1520 1520 1521 1521 1522 1523 1523 1523 1524 1525 1525 1526 1526 1527 1527 1528 1529 1529 1530 1531 1532 1533 1533 1534 1534 1535 1536 1537 1538 1539 1539 1539
1516 1516 1516 1516 1515 1515 1515 1515 1515 1516 1516 1517 1517 1518 1519 1519 1520 1520 1521 1521 1522 1522 1523 1523 1524 1525 1525 1526 1526 1527 1528 1529 1530 1531 1531 1532 1533 1534 1535 1535 1536 1537 1537
1514 1513 1513 1513 1513 1513 1513 1513 1513 1513 1513 1514 1514 1515 1516 1516 1517 1517 1518 1518 1519 1519 1520 1520 1521 1522 1522 1523 1523 1524 1525 1526 1527 1527 1528 1529 1530 1531 1532 1533 1534 1534 1535
1512 1511 1511 1511 1511 1510 1510 1510 1510 1510 1511 1511 1511 1512 1513 1513 1514 1514 1515 1515 1515 1516 1516 1517 1518 1519 1519 1520 1520 1521 1522 1523 1523 1524 1525 1526 1527 1528 1529 1530 1531 1531 1532
1509 1509 1509 1509 1508 1508 1508 1507 1507 1507 1508 1508 1509 1509 1509 1510 1510 1511 1511 1512 1512 1512 1513 1513 1514 1515 1516 1516 1517 1518 1518 1519 1521 1522 1522 1522 1524 1525 1526 1527 1528 1528 1529
1507 1506 1506 1506 1505 1505 1505 1505 1505 1504 1505 1505 1505 1506 1506 1506 1507 1507 1508 1508 1508 1508 1509 1509 1510 1511 1512 1512 1513 1514 1515 1516 1517 1518 1519 1520 1521 1522 1523 1524 1525 1526 1527
1504 1503 1503 1503 1503 1502 1502 1502 1502 1502 1502 1502 1502 1502 1502 1503 1503 1503 1504 1504 1504 1504 1505 1505 1506 1507 1508 1508 1509 1510 1511 1512 1514 1514 1515 1516 1517 1518 1519 1520 1521 1521 1521
1502 1501 1501 1500 1500 1500 1499 1499 1499 1499 1499 1499 1499 1499 1499 1499 1499 1499 1500 1500 1500 1500 1501 1501 1502 1503 1503 1504 1505 1506 1506 1508 1509 1510 1511 1512 1513 1514 1514 1516 1517 1517 1518
1499 1499 1498 1498 1497 1497 1496 1496 1496 1496 1496 1496 1495 1495 1495 1495 1495 1495 1496 1496 1496 1496 1496 1497 1498 1499 1499 1500 1501 1502 1503 1504 1505 1506 1507 1507 1508 1509 1510 1511 1512 1513 1514
1496 1496 1495 1495 1494 1494 1494 1493 1493 1493 1492 1492 1492 1491 1492 1492 1491 1491 1491 1491 1492 1492 1492 1493 1494 1495 1495 1496 1497 1498 1499 1500 1500 1501 1502 1502 1503 1504 1505 1506 1507 1508 1510
1493 1492 1492 1492 1491 1491 1490 1490 1490 1489 1489 1488 1487 1487 1487 1487 1487 1487 1487 1487 1487 1488 1488 1489 1490 1490 1491 1491 1492 1493 1494 1495 1496 1496 1497 1497 1499 1500 1501 1502 1502 1504 1505
1489 1489 1489 1488 1488 1488 1487 1487 1486 1486 1485 1484 1484 1483 1483 1483 1483 1482 1482 1482 1483 1483 1484 1484 1485 1486 1486 1487 1488 1489 1490 1491 1491 1492 1492 1494 1495 1495 1496 1496 1497 1498 1499
1486 1486 1485 1485 1485 1484 1484 1484 1483 1482 1482 1481 1480 1480 1479 1478 1478 1478 1478 1478 1478 1478 1479 1479 1480 1481 1481 1482 1483 1484 1485 1486 1487 1487 1488 1489 1490 1490 1491 1492 1492 1493 1493
1483 1482 1482 1482 1481 1481 1480 1480 1479 1479 1478 1478 1477 1477 1476 1476 1475 1474 1474 1474 1474 1474 1474 1474 1474 1475 1476 1477 1478 1479 1480 1481 1482 1483 1483 1484 1484 1485 1486 1487 1488 1488 1488
1480 1479 1479 1478 1478 1477 1476 1476 1475 1474 1474 1474 1473 1472 1471 1471 1471 1470 1470 1469 1469 1469 1469 1469 1469 1470 1471 1472 1473 1474 1475 1476 1477 1478 1478 1479 1479 1480 1481 1481 1482 1482 1482
1476 1476 1475 1475 1474 1474 1473 1472 1471 1470 1469 1468 1468 1468 1467 1467 1466 1466 1465 1465 1464 1464 1464 1464 1464 1465 1466 1467 1468 1469 1470 1470 1471 1472 1473 1473 1474 1474 1475 1475 1476 1477 1477
1472 1472 1472 1471 1471 1470 1470 1469 1468 1467 1466 1465 1464 1463 1463 1462 1462 1461 1461 1460 1460 1459 1459 1459 1460 1461 1461 1462 1463 1464 1464 1465 1466 1466 1467 1468 1468 1469 1469 1470 1470 1471 1472
1468 1468 1468 1467 1467 1466 1465 1465 1464 1463 1462 1461 1460 1459 1459 1458 1457 1456 1456 1455 1455 1455 1454 1454 1454 1455 1456 1456 1457 1458 1459 1459 1459 1460 1461 1461 1462 1463 1463 1463 1464 1465 1465
1464 1463 1463 1463 1462 1462 1461 1460 1460 1459 1458 1457 1456 1456 1455 1454 1453 1452 1451 1451 1450 1449 1449 1449 1449 1449 1450 1451 1451 1452 1452 1453 1453 1454 1455 1455 1456 1456 1457 1457 1458 1459 1459
1460 1459 1459 1458 1458 1457 1457 1456 1455 1455 1454 1453 1452 1451 1451 1450 1449 1448 1447 1446 1446 1445 1445 1444 1444 1444 1444 1444 1445 1445 1446 1446 1447 1448 1448 1449 1449 1450 1451 1451 1451 1452 1452
1455 1454 1454 1453 1453 1453 1452 1451 1451 1450 1449 1448 1447 1447 1446 1445 1444 1443 1442 1442 1441 1441 1440 1439 1438 1438 1438 1438 1439 1439 1439 1440 1440 1441 1442 1442 1443 1443 1444 1444 1444 1445 1445
1450 1450 1449 1448 1448 1447 1447 1446 1446 1445 1445 1444 1443 1442 1441 1440 1439 1439 1438 1437 1436 1435 1435 1434 1433 1433 1432 1432 1432 1432 1433 1433 1434 1435 1435 1436 1436 1436 1436 1437 1437 1438 1438
1446 1445 1444 1444 1443 1443 1442 1441 1441 1441 1440 1439 1438 1437 1436 1435 1434 1433 1433 1432 1431 1430 1429 1428 1427 1427 1426 1426 1426 1426 1426 1427 1427 1428 1428 1428 1428 1429 1429 1429 1429 1430 1431
1441 1441 1440 1439 1439 1438 1437 1437 1436 1436 1435 1434 1433 1432 1431 1430 1429 1428 1427 1426 1425 1424 1423 1422 1421 1420 1420 1419 1419 1419 1419 1419 1420 1421 1421 1421 1421 1421 1421 1422 1422 1423 1423